FW1981 Weather Reports


time (UTC)temp
F
wind
direction
speed
knots
gust
knots
rain 1hr
in
rain 24hr
in
rain mn
in
humidity
%
barometer
mb
20260505031517 41 233 1.7 6.1 0.00 0.19 0.00 88 1009.8
20260505031010 41 283 1.7 7.0 0.00 0.19 0.00 88 1009.6
20260505030518 40 92 0.9 7.8 0.00 0.19 0.00 88 1009.5
20260505030010 40 321 2.6 7.8 0.00 0.19 0.00 88 1009.6
20260505025517 40 262 2.6 8.7 0.00 0.19 0.19 88 1009.5
20260505025009 40 216 2.6 8.7 0.00 0.19 0.19 88 1009.4
20260505024518 40 223 2.6 9.6 0.00 0.19 0.19 88 1009.3
20260505024009 40 354 2.6 9.6 0.00 0.19 0.19 88 1009.2
20260505022510 40 261 2.6 9.6 0.00 0.19 0.19 88 1009.1
20260505022017 40 226 1.7 7.8 0.00 0.19 0.19 88 1009.1
20260505021510 40 205 1.7 7.0 0.00 0.19 0.19 88 1009.2
20260505021018 40 289 2.6 7.0 0.00 0.19 0.19 88 1008.9
20260505020510 40 19 2.6 6.1 0.00 0.19 0.19 89 1008.9
20260505020017 40 240 1.7 6.1 0.00 0.19 0.19 89 1008.6
20260505015509 40 211 1.7 8.7 0.00 0.23 0.19 88 1008.7
20260505014010 40 285 1.7 6.1 0.00 0.23 0.19 88 1008.7
20260505013517 40 101 1.7 8.7 0.00 0.23 0.19 88 1008.6
20260505013009 41 214 2.6 8.7 0.00 0.23 0.19 88 1008.5
20260505012519 41 265 1.7 12.2 0.00 0.23 0.19 89 1008.4
20260505012011 40 250 3.5 12.2 0.00 0.23 0.19 89 1008.5
20260505011522 40 304 2.6 8.7 0.00 0.23 0.19 89 1008.5
20260505011010 40 199 1.7 7.8 0.00 0.23 0.19 89 1008.4
20260505010517 40 347 0.9 7.8 0.00 0.23 0.19 88 1008.5
20260505010010 40 257 1.7 7.8 0.00 0.23 0.19 88 1008.4
20260505004017 41 250 2.6 7.0 0.00 0.25 0.19 87 1008.2
20260505003510 41 19 2.6 9.6 0.00 0.25 0.19 87 1008.1
20260505003017 41 212 2.6 11.3 0.00 0.25 0.19 87 1008.1
20260505002510 41 237 3.5 9.6 0.00 0.25 0.19 87 1008.2
20260505002017 41 229 1.7 7.8 0.00 0.25 0.19 87 1008.1
20260505001511 41 29 2.6 5.2 0.00 0.25 0.19 87 1008.1
20260505000010 41 250 1.7 7.0 0.00 0.25 0.19 87 1007.8
20260504235529 41 215 2.6 7.8 0.00 0.29 0.19 87 1007.9
20260504235011 41 271 1.7 9.6 0.00 0.29 0.19 87 1007.8
20260504234517 41 274 2.6 10.4 0.00 0.29 0.19 87 1007.7
20260504234013 41 4 3.5 10.4 0.00 0.29 0.19 87 1007.7
20260504232510 41 149 3.5 9.6 0.00 0.29 0.19 86 1007.6
20260504232018 42 290 3.5 9.6 0.00 0.29 0.19 86 1007.4
20260504231521 42 269 3.5 12.2 0.00 0.29 0.19 85 1007.5
20260504231018 42 277 4.3 12.2 0.00 0.29 0.19 85 1007.3
20260504230511 42 233 2.6 9.6 0.00 0.29 0.19 84 1007.4
20260504230022 42 282 4.3 12.2 0.00 0.29 0.19 84 1007.2
20260504225510 42 113 3.5 12.2 0.00 0.32 0.19 83 1007.4
20260504223517 42 203 1.7 9.6 0.00 0.32 0.19 83 1007.2
20260504223010 42 201 4.3 9.6 0.00 0.32 0.19 83 1007.1
20260504222519 42 34 1.7 9.6 0.00 0.32 0.19 83 1007.0
20260504222010 42 235 3.5 11.3 0.00 0.32 0.19 82 1006.9
20260504221518 42 280 3.5 12.2 0.00 0.32 0.19 82 1006.8
20260504221010 42 309 2.6 12.2 0.00 0.32 0.19 82 1006.7
20260504220517 42 39 4.3 11.3 0.00 0.32 0.19 81 1006.6
20260504220015 43 231 3.5 9.6 0.00 0.32 0.19 81 1006.6
20260504214017 44 208 3.5 13.0 0.00 0.35 0.19 78 1006.3
20260504213510 44 273 3.5 13.0 0.00 0.35 0.19 77 1006.4
20260504213022 44 231 5.2 13.9 0.00 0.35 0.19 77 1006.5
20260504212511 45 127 4.3 13.9 0.00 0.35 0.19 76 1006.5
20260504210518 45 290 3.5 19.1 0.00 0.35 0.19 76 1006.3
20260504210010 45 205 5.2 19.1 0.00 0.35 0.19 75 1006.3
20260504205517 45 357 3.5 12.2 0.00 0.41 0.19 75 1006.2
20260504205015 46 209 5.2 14.8 0.00 0.41 0.19 75 1006.2
20260504204518 45 305 6.1 14.8 0.00 0.41 0.19 75 1006.1
20260504204021 46 295 5.2 12.2 0.00 0.41 0.19 74 1006.0
20260504202010 47 270 5.2 13.0 0.00 0.41 0.19 72 1005.8
20260504201523 47 249 4.3 16.5 0.00 0.41 0.19 71 1005.7
20260504201010 48 276 6.1 16.5 0.00 0.41 0.19 70 1005.5
20260504200518 48 189 4.3 12.2 0.00 0.41 0.19 70 1005.4
20260504200011 48 169 3.5 12.2 0.00 0.41 0.19 69 1005.3
20260504195518 48 278 4.3 12.2 0.00 0.55 0.19 69 1005.3
20260504195021 48 223 3.5 14.8 0.00 0.55 0.19 68 1005.2
20260504194518 49 225 6.1 14.8 0.00 0.55 0.19 67 1005.0
20260504194011 49 334 3.5 10.4 0.00 0.55 0.19 67 1005.0
20260504193522 49 13 3.5 12.2 0.00 0.55 0.19 69 1004.9
20260504193011 49 224 5.2 12.2 0.00 0.55 0.19 68 1004.9
20260504191017 49 263 4.3 15.6 0.00 0.55 0.19 69 1004.8
20260504190521 49 251 5.2 13.0 0.00 0.55 0.19 67 1004.7
20260504190023 49 236 5.2 13.9 0.00 0.55 0.19 67 1004.7
20260504185521 50 215 5.2 12.2 0.00 0.64 0.19 66 1004.7
20260504185017 50 217 4.3 13.9 0.00 0.64 0.19 68 1004.6
20260504184510 48 200 5.2 13.9 0.00 0.64 0.19 67 1004.5
20260504183010 50 27 4.3 14.8 0.00 0.64 0.19 64 1004.5
20260504182518 51 270 6.1 14.8 0.00 0.64 0.19 62 1004.4
20260504182010 52 241 8.7 14.8 0.00 0.64 0.19 56 1004.3
20260504181518 55 248 5.2 15.6 0.00 0.64 0.19 54 1004.2
20260504181021 59 255 7.0 15.6 0.00 0.64 0.19 43 1004.4
20260504180529 60 243 4.3 13.0 0.00 0.64 0.19 37 1004.1
20260504180010 60 278 6.1 16.5 0.00 0.64 0.19 36 1004.1
20260504174011 59 205 3.5 13.9 0.00 0.73 0.19 37 1004.0
20260504173518 58 307 6.1 15.6 0.00 0.73 0.19 37 1004.1
20260504173022 58 311 6.1 16.5 0.00 0.73 0.19 37 1004.1
20260504172518 58 169 7.8 16.5 0.00 0.73 0.19 36 1004.1
20260504172011 58 278 4.3 15.6 0.00 0.73 0.19 38 1004.1
20260504171519 57 270 5.2 15.6 0.00 0.73 0.19 38 1003.9
20260504171011 57 281 6.1 23.5 0.00 0.73 0.19 37 1003.9
20260504151019 54 278 4.3 20.0 0.00 0.82 0.19 62 1003.4
20260504150516 53 321 6.1 20.0 0.00 0.82 0.19 63 1003.2
20260504141019 50 315 5.2 13.0 0.00 0.82 0.19 72 1002.8
20260504140511 50 340 4.3 12.2 0.00 0.82 0.19 73 1002.8
20260504130511 44 338 5.2 12.2 0.00 0.82 0.19 84 1002.0
20260504110511 41 240 4.3 11.3 0.00 0.82 0.19 93 999.4
20260504100512 40 228 5.2 14.8 0.00 0.82 0.19 95 997.7
20260504081520 37 270 5.2 14.8 0.01 0.81 0.18 95 995.0
20260504081019 37 218 4.3 14.8 0.01 0.81 0.18 95 994.9
20260504080511 37 295 5.2 14.8 0.01 0.81 0.18 95 994.7
20260504050517 35 300 4.3 11.3 0.02 0.67 0.04 94 989.2
20260504050020 35 239 3.5 14.8 0.01 0.66 0.03 94 989.1
20260504045518 35 219 4.3 14.8 0.01 0.66 0.03 94 988.8
20260504045011 35 260 2.6 11.3 0.01 0.66 0.03 94 988.6
20260504044519 35 277 5.2 11.3 0.01 0.66 0.03 94 988.5
20260504044018 35 237 3.5 13.0 0.01 0.66 0.03 94 988.4
20260504043523 35 316 6.1 13.0 0.02 0.66 0.03 94 988.1
20260504043019 35 259 5.2 15.6 0.02 0.66 0.03 94 988.0
20260504042512 35 260 5.2 15.6 0.02 0.66 0.03 94 987.8
20260504042024 35 269 5.2 16.5 0.01 0.65 0.02 94 987.8
20260504041518 35 232 4.3 15.6 0.02 0.65 0.02 94 987.5
20260504041012 35 280 3.5 13.9 0.02 0.65 0.02 94 987.3
20260504040519 35 269 5.2 13.9 0.02 0.65 0.02 94 987.2
20260504040018 36 263 5.2 13.9 0.02 0.65 0.02 94 987.2
20260504035523 36 243 5.2 13.9 0.02 0.65 0.02 94 987.0
20260504035030 36 272 4.3 13.9 0.02 0.65 0.02 94 986.7
20260504034519 36 276 4.3 12.2 0.02 0.65 0.02 94 986.4
20260504034012 37 250 4.3 12.2 0.01 0.64 0.01 94 986.2
20260504033519 37 229 3.5 13.9 0.01 0.64 0.01 94 986.1
20260504033019 37 252 6.1 13.9 0.01 0.64 0.01 94 985.9
20260504032513 37 323 3.5 11.3 0.01 0.64 0.01 94 985.7
20260504032030 38 262 5.2 11.3 0.00 0.63 0.00 94 985.3